Time,TemperatureF,DewpointF,PressureIn,WindDirection,WindDirectionDegrees,WindSpeedMPH,WindSpeedGustMPH,Humidity,HourlyPrecipIn,Conditions,Clouds,dailyrainin,SoftwareType,DateUTC
2013-11-15 00:12:00,35.6,31.0,25.03,ESE,120,3.0,3.0,82,0.00,,,0.00,weatherlink.com 1.10,2013-11-15 07:12:00,
2013-11-15 00:27:00,36.0,31.0,25.02,SSW,194,7.0,9.0,81,0.00,,,0.00,weatherlink.com 1.10,2013-11-15 07:27:00,
2013-11-15 00:42:00,35.4,30.0,25.00,WSW,240,2.0,11.0,82,0.00,,,0.00,weatherlink.com 1.10,2013-11-15 07:42:00,
2013-11-15 00:57:00,34.7,29.0,25.00,NNW,328,2.0,3.0,81,0.00,,,0.00,weatherlink.com 1.10,2013-11-15 07:57:00,
2013-11-15 01:12:00,35.7,31.0,25.00,SSW,212,3.0,9.0,82,0.00,,,0.00,weatherlink.com 1.10,2013-11-15 08:12:00,
2013-11-15 01:27:00,36.3,31.0,25.00,West,270,0.0,14.0,80,0.00,,,0.00,weatherlink.com 1.10,2013-11-15 08:27:00,
2013-11-15 01:42:00,35.2,30.0,24.99,ESE,120,1.0,2.0,82,0.00,,,0.00,weatherlink.com 1.10,2013-11-15 08:42:00,
2013-11-15 01:57:00,34.7,30.0,24.99,SSE,157,1.0,1.0,83,0.00,,,0.00,weatherlink.com 1.10,2013-11-15 08:57:00,
2013-11-15 02:12:00,34.3,30.0,24.98,SSE,150,0.0,3.0,83,0.00,,,0.00,weatherlink.com 1.10,2013-11-15 09:12:00,
2013-11-15 02:28:00,35.0,30.0,24.98,WSW,245,4.0,7.0,83,0.00,,,0.00,weatherlink.com 1.10,2013-11-15 09:28:00,
2013-11-15 02:58:00,-999.0,-99.9,24.95,North,-999,-999.0,-999.0,-999,0.00,,,0.00,weatherlink.com 1.10,2013-11-15 09:58:00,
2013-11-15 03:13:00,-999.0,-99.9,24.96,North,-999,-999.0,-999.0,-999,0.00,,,0.00,weatherlink.com 1.10,2013-11-15 10:13:00,
2013-11-15 03:28:00,-999.0,-99.9,24.96,North,-999,-999.0,-999.0,-999,0.00,,,0.00,weatherlink.com 1.10,2013-11-15 10:28:00,
2013-11-15 07:10:00,-999.0,-99.9,24.93,North,-999,-999.0,-999.0,-999,0.00,,,0.00,weatherlink.com 1.10,2013-11-15 14:10:00,
2013-11-15 07:28:00,31.2,28.0,24.93,WSW,243,4.0,7.0,88,0.00,,,0.00,weatherlink.com 1.10,2013-11-15 14:28:00,
2013-11-15 07:44:00,33.8,30.0,24.93,West,266,6.0,9.0,85,0.00,,,0.00,weatherlink.com 1.10,2013-11-15 14:44:00,
2013-11-15 07:59:00,36.9,31.0,24.93,West,274,3.0,9.0,78,0.00,,,0.00,weatherlink.com 1.10,2013-11-15 14:59:00,
2013-11-15 08:14:00,37.6,30.0,24.93,West,260,6.0,9.0,75,0.00,,,0.00,weatherlink.com 1.10,2013-11-15 15:14:00,
2013-11-15 08:39:00,40.0,32.0,24.92,West,267,6.0,9.0,73,0.00,,,0.00,weatherlink.com 1.10,2013-11-15 15:39:00,
2013-11-15 08:44:00,40.7,32.0,24.92,West,267,6.0,9.0,71,0.00,,,0.00,weatherlink.com 1.10,2013-11-15 15:44:00,
2013-11-15 08:59:00,43.4,33.0,24.91,WNW,283,3.0,7.0,67,0.00,,,0.00,weatherlink.com 1.10,2013-11-15 15:59:00,
2013-11-15 09:14:00,45.0,33.0,24.92,NW,322,5.0,7.0,64,0.00,,,0.00,weatherlink.com 1.10,2013-11-15 16:14:00,
2013-11-15 09:29:00,48.4,32.0,24.91,West,281,5.0,6.0,54,0.00,,,0.00,weatherlink.com 1.10,2013-11-15 16:29:00,
2013-11-15 09:44:00,51.2,30.0,24.91,NW,307,3.0,7.0,45,0.00,,,0.00,weatherlink.com 1.10,2013-11-15 16:44:00,
2013-11-15 09:59:00,53.4,28.0,24.91,West,274,5.0,10.0,37,0.00,,,0.00,weatherlink.com 1.10,2013-11-15 16:59:00,
2013-11-15 10:14:00,55.1,24.0,24.91,WNW,283,5.0,13.0,30,0.00,,,0.00,weatherlink.com 1.10,2013-11-15 17:14:00,
2013-11-15 10:29:00,55.7,23.0,24.90,WSW,253,9.0,14.0,28,0.00,,,0.00,weatherlink.com 1.10,2013-11-15 17:29:00,
2013-11-15 10:44:00,56.2,24.0,24.89,WSW,239,8.0,13.0,29,0.00,,,0.00,weatherlink.com 1.10,2013-11-15 17:44:00,
2013-11-15 10:59:00,57.6,23.0,24.88,West,271,2.0,9.0,26,0.00,,,0.00,weatherlink.com 1.10,2013-11-15 17:59:00,
2013-11-15 11:15:00,58.0,24.0,24.87,SW,231,4.0,11.0,27,0.00,,,0.00,weatherlink.com 1.10,2013-11-15 18:15:00,
2013-11-15 11:30:00,59.9,23.0,24.86,West,277,1.0,8.0,24,0.00,,,0.00,weatherlink.com 1.10,2013-11-15 18:30:00,
2013-11-15 11:45:00,60.4,20.0,24.85,NW,311,7.0,14.0,21,0.00,,,0.00,weatherlink.com 1.10,2013-11-15 18:45:00,
2013-11-15 12:00:00,60.1,19.0,24.84,WSW,240,11.0,15.0,20,0.00,,,0.00,weatherlink.com 1.10,2013-11-15 19:00:00,
2013-11-15 12:15:00,59.4,18.0,24.84,SSW,193,9.0,19.0,20,0.00,,,0.00,weatherlink.com 1.10,2013-11-15 19:15:00,
2013-11-15 12:30:00,59.6,18.0,24.83,SW,214,13.0,19.0,20,0.00,,,0.00,weatherlink.com 1.10,2013-11-15 19:30:00,
2013-11-15 12:45:00,60.1,17.0,24.83,SSW,197,9.0,20.0,19,0.00,,,0.00,weatherlink.com 1.10,2013-11-15 19:45:00,
2013-11-15 13:00:00,60.5,18.0,24.82,SW,219,11.0,19.0,19,0.00,,,0.00,weatherlink.com 1.10,2013-11-15 20:00:00,
2013-11-15 13:15:00,60.5,18.0,24.82,SSW,203,11.0,16.0,19,0.00,,,0.00,weatherlink.com 1.10,2013-11-15 20:15:00,
2013-11-15 13:30:00,60.9,18.0,24.81,WSW,240,8.0,15.0,19,0.00,,,0.00,weatherlink.com 1.10,2013-11-15 20:30:00,
2013-11-15 13:45:00,61.1,18.0,24.81,SSW,204,6.0,16.0,19,0.00,,,0.00,weatherlink.com 1.10,2013-11-15 20:45:00,
2013-11-15 14:00:00,61.2,17.0,24.80,WSW,240,8.0,16.0,18,0.00,,,0.00,weatherlink.com 1.10,2013-11-15 21:00:00,
2013-11-15 14:15:00,61.2,18.0,24.80,SW,217,11.0,17.0,19,0.00,,,0.00,weatherlink.com 1.10,2013-11-15 21:15:00,
2013-11-15 14:30:00,61.2,18.0,24.79,SE,139,8.0,15.0,19,0.00,,,0.00,weatherlink.com 1.10,2013-11-15 21:30:00,
2013-11-15 14:55:00,61.1,17.0,24.79,SW,230,10.0,14.0,18,0.00,,,0.00,weatherlink.com 1.10,2013-11-15 21:55:00,
2013-11-15 15:15:00,60.8,18.0,24.78,East,89,6.0,13.0,19,0.00,,,0.00,weatherlink.com 1.10,2013-11-15 22:15:00,
2013-11-15 15:30:00,59.5,18.0,24.78,South,187,5.0,12.0,20,0.00,,,0.00,weatherlink.com 1.10,2013-11-15 22:30:00,
2013-11-15 15:45:00,57.6,20.0,24.78,ESE,113,5.0,6.0,23,0.00,,,0.00,weatherlink.com 1.10,2013-11-15 22:45:00,
2013-11-15 16:00:00,56.5,21.0,24.77,SSW,201,1.0,4.0,25,0.00,,,0.00,weatherlink.com 1.10,2013-11-15 23:00:00,
2013-11-15 16:15:00,55.1,21.0,24.77,SSW,204,2.0,3.0,27,0.00,,,0.00,weatherlink.com 1.10,2013-11-15 23:15:00,
2013-11-15 16:30:00,53.8,21.0,24.77,SSW,211,3.0,3.0,28,0.00,,,0.00,weatherlink.com 1.10,2013-11-15 23:30:00,
2013-11-15 16:45:00,52.2,21.0,24.77,SSW,211,4.0,5.0,30,0.00,,,0.00,weatherlink.com 1.10,2013-11-15 23:45:00,
2013-11-15 17:00:00,52.4,22.0,24.77,SW,219,1.0,4.0,30,0.00,,,0.00,weatherlink.com 1.10,2013-11-16 00:00:00,
2013-11-15 17:15:00,51.9,23.0,24.77,SSW,194,3.0,5.0,32,0.00,,,0.00,weatherlink.com 1.10,2013-11-16 00:15:00,
2013-11-15 17:30:00,51.4,24.0,24.78,North,353,2.0,3.0,34,0.00,,,0.00,weatherlink.com 1.10,2013-11-16 00:30:00,
2013-11-15 17:45:00,48.1,24.0,24.78,NNE,29,2.0,5.0,39,0.00,,,0.00,weatherlink.com 1.10,2013-11-16 00:45:00,
2013-11-15 18:00:00,49.2,25.0,24.78,NNW,345,6.0,9.0,39,0.00,,,0.00,weatherlink.com 1.10,2013-11-16 01:00:00,
2013-11-15 18:15:00,49.2,26.0,24.79,NNE,22,0.0,4.0,41,0.00,,,0.00,weatherlink.com 1.10,2013-11-16 01:15:00,
2013-11-15 18:45:00,48.9,27.0,24.80,WNW,298,1.0,2.0,42,0.00,,,0.00,weatherlink.com 1.10,2013-11-16 01:45:00,
2013-11-15 19:00:00,49.1,27.0,24.79,NNE,20,1.0,2.0,42,0.00,,,0.00,weatherlink.com 1.10,2013-11-16 02:00:00,
2013-11-15 19:15:00,48.9,27.0,24.80,SSW,206,9.0,12.0,42,0.00,,,0.00,weatherlink.com 1.10,2013-11-16 02:15:00,
2013-11-15 19:30:00,51.0,28.0,24.79,WSW,248,8.0,10.0,41,0.00,,,0.00,weatherlink.com 1.10,2013-11-16 02:30:00,
2013-11-15 19:45:00,50.8,28.0,24.78,WNW,293,6.0,9.0,41,0.00,,,0.00,weatherlink.com 1.10,2013-11-16 02:45:00,
2013-11-15 20:00:00,49.2,28.0,24.79,West,277,2.0,14.0,44,0.00,,,0.00,weatherlink.com 1.10,2013-11-16 03:00:00,
2013-11-15 20:16:00,48.3,29.0,24.79,WSW,240,8.0,9.0,47,0.00,,,0.00,weatherlink.com 1.10,2013-11-16 03:16:00,
2013-11-15 20:31:00,48.0,30.0,24.79,WNW,300,6.0,11.0,51,0.00,,,0.00,weatherlink.com 1.10,2013-11-16 03:31:00,
2013-11-15 20:46:00,47.7,30.0,24.79,WNW,290,2.0,10.0,51,0.00,,,0.00,weatherlink.com 1.10,2013-11-16 03:46:00,
2013-11-15 21:01:00,46.4,31.0,24.78,NW,304,3.0,7.0,55,0.00,,,0.00,weatherlink.com 1.10,2013-11-16 04:01:00,
2013-11-15 21:16:00,45.9,31.0,24.77,West,259,3.0,4.0,56,0.00,,,0.00,weatherlink.com 1.10,2013-11-16 04:16:00,
2013-11-15 21:31:00,45.5,31.0,24.78,West,259,6.0,7.0,58,0.00,,,0.00,weatherlink.com 1.10,2013-11-16 04:31:00,
2013-11-15 21:46:00,45.6,31.0,24.77,West,281,3.0,9.0,57,0.00,,,0.00,weatherlink.com 1.10,2013-11-16 04:46:00,
2013-11-15 22:01:00,45.1,31.0,24.76,NW,313,2.0,5.0,58,0.00,,,0.00,weatherlink.com 1.10,2013-11-16 05:01:00,
2013-11-15 22:16:00,44.3,31.0,24.77,WNW,297,6.0,10.0,60,0.00,,,0.00,weatherlink.com 1.10,2013-11-16 05:16:00,